Terug naar catalogus

ONEWEB-0679

ActiefCommunicatiePO
NORAD 56715·PAYLOAD·🇬🇧 United Kingdom

Gelanceerd May 20, 2023 vanaf Vandenberg Space Force Base

Loading…

Volgende Passages (komende 24 uur)

TLE

VersSource: CelesTrak SupGP

Epoch: Sep 14, 2026, 22:14 UTC

1 56715C 23068F   26257.92687917 -.00002706  00000+0 -70862-2 0  2572
2 56715  87.9157 210.9517 0002079  94.9988 297.2927 13.16600197    16

Volg ONEWEB-0679 in realtime met AllMySat

Download on the App Store